Location: Guadanolo
(41.9167°N, 12.9333°E)
Time: 10:10:32
(UTC+00:00)

Resurs 01 Rocket - Pass Details

Date: 16 September 2019
Orbit: 635 x 644 km, 98.0° (Epoch: 22 October)

Event Time Altitude Azimuth Distance (km) Brightness Sun altitude
Exits shadow 18:18:23 14° 78° (ENE) 1,758 3.3 -12.1°
Maximum altitude 18:19:20 15° 63° (ENE) 1,710 3.4 -12.3°
Drops below altitude 10° 18:21:54 10° 28° (NNE) 2,043 4.1 -12.8°
Sets 18:24:55 0° 6° (N) 2,959 5.2 -13.3°
